Regional Weather Roundup
Issued by NWS

Home | Current Version | Previous Version | Text Only | Print | Product List | Glossary Off
Versions: 1 2 3 4 5 6 7 8 9 10 11 12 13 14 15 16 17 18 19 20 21 22 23 24 25 26 27 28 29 30 31 32 33 34 35 36 37 38 39 40 41 42 43 44 45 46 47 48 49 50

000
ASUS43 KLSX 251310
RWRMO

WEATHER SUMMARY FOR MISSOURI
NATIONAL WEATHER SERVICE SPRINGFIELD MO
800 AM CDT WED MAY 25 2016

NOTE: "FAIR" INDICATES FEW OR NO CLOUDS BELOW 12,000 FEET WITH NO
       SIGNIFICANT WEATHER AND/OR OBSTRUCTIONS TO VISIBILITY.
       CURRENT SKY AND/OR WEATHER CONDITIONS ARE NOT AVAILABLE FOR
       CHILLICOTHE AND FARMINGTON.

MOZ001>031-035>038-043-044-053-054-251400-
...NORTHERN AND WESTERN MISSOURI...

CITY           SKY/WX    TMP DP  RH WIND       PRES   REMARKS
KANSAS CTY INT CLOUDY    70  57  63 E8        29.86R
KANSAS C DTWN  CLOUDY    70  58  65 E6        29.84R
LEE`S SUMMIT   CLOUDY    67  58  72 SE5       29.86R
ST JOSEPH      CLOUDY    69  57  65 N17G24    29.89R
CHILLICOTHE      N/A     67  62  84 VRB5      29.88R
KIRKSVILLE     CLOUDY    65  63  93 SE13      29.92F

$$
MOZ066>068-077>081-088>096-101>105-251400-
...SOUTHWEST MISSOURI...

CITY           SKY/WX    TMP DP  RH WIND       PRES   REMARKS
SPRINGFIELD    CLOUDY    66  61  84 NW8       30.02F
JOPLIN         RAIN      63  62  97 E9        30.03F
BRANSON        CLOUDY    64  63  94 NW6       30.01S

$$
MOZ032>034-039>042-045>050-055>058-069>072-251400-
...CENTRAL MISSOURI...

CITY           SKY/WX    TMP DP  RH WIND       PRES   REMARKS
COLUMBIA       PTSUNNY   65  63  93 S9        29.97R
JEFFERSON CITY CLOUDY    66  63  90 E6        29.97S
ROLLA          MOSUNNY   66  62  87 S13       29.98F
SEDALIA        CLOUDY    68  64  87 S14       29.89F
WHITEMAN AFB   PTSUNNY   66  66 100 S14G23    29.85F
WARRENSBURG    CLOUDY    64  61  88 E8        29.86R

$$
MOZ051-052-059>065-251400-
...EAST CENTRAL MISSOURI...

CITY           SKY/WX    TMP DP  RH WIND       PRES   REMARKS
ST LOUIS INTL  CLOUDY    69  61  75 VRB3      30.01S
SPIRIT OF STL  CLOUDY    66  62  87 CALM      30.01R
ST CHARLES     CLOUDY    68  63  84 S8        30.00S

$$
MOZ072>076-082>087-097>100-106>115-251400-
...SOUTH CENTRAL AND SOUTHEAST MISSOURI...

CITY           SKY/WX    TMP DP  RH WIND       PRES   REMARKS
CAPE GIRARDEAU CLOUDY    67  64  90 S10       30.07S THUNDER
FARMINGTON     CLOUDY    64  62  93 S9        30.05F
POPLAR BLUFF   CLOUDY    66  63  90 S6        30.06F
WEST PLAINS    CLOUDY    62  60  93 S8        30.04S

$$




USA.gov is the U.S. government's official web portal to all federal, state and local government web resources and services.